TimeEST,TemperatureF,Dew PointF,Humidity,Sea Level PressureIn,VisibilityMPH,Wind Direction,Wind SpeedMPH,Gust SpeedMPH,PrecipitationIn,Events,Conditions,WindDirDegrees,DateUTC
12:00 AM,35.2,29.8,81,30.38,10.0,SSW,3.5,-,N/A,,Clear,200,2013-12-28 05:00:00
12:20 AM,34.3,29.3,82,30.37,10.0,SW,4.6,-,N/A,,Clear,230,2013-12-28 05:20:00
12:40 AM,35.6,29.8,80,30.37,10.0,SW,4.6,-,N/A,,Clear,220,2013-12-28 05:40:00
1:00 AM,35.2,29.3,79,30.37,10.0,SW,3.5,-,N/A,,Clear,220,2013-12-28 06:00:00
1:20 AM,35.6,29.3,78,30.37,10.0,SW,4.6,-,N/A,,Clear,230,2013-12-28 06:20:00
1:40 AM,35.4,29.3,78,30.37,10.0,SW,3.5,-,N/A,,Clear,220,2013-12-28 06:40:00
2:00 AM,36.0,29.3,77,30.37,10.0,SW,3.5,-,N/A,,Clear,230,2013-12-28 07:00:00
2:20 AM,36.5,29.7,76,30.37,10.0,Calm,Calm,-,N/A,,Clear,0,2013-12-28 07:20:00
2:40 AM,36.3,29.8,77,30.36,10.0,Calm,Calm,-,N/A,,Clear,0,2013-12-28 07:40:00
3:00 AM,34.2,29.3,82,30.35,10.0,Calm,Calm,-,N/A,,Clear,0,2013-12-28 08:00:00
3:20 AM,34.3,29.5,82,30.35,10.0,Calm,Calm,-,N/A,,Clear,0,2013-12-28 08:20:00
3:40 AM,35.2,29.3,79,30.35,10.0,Calm,Calm,-,N/A,,Clear,0,2013-12-28 08:40:00
4:00 AM,35.1,29.3,80,30.34,10.0,SSW,3.5,-,N/A,,Clear,210,2013-12-28 09:00:00
4:21 AM,34.3,28.9,81,30.34,10.0,Calm,Calm,-,N/A,,Clear,0,2013-12-28 09:21:00
4:41 AM,34.3,28.9,81,30.34,10.0,SW,3.5,-,N/A,,Clear,230,2013-12-28 09:41:00
5:01 AM,34.0,29.1,82,30.34,10.0,SSW,4.6,-,N/A,,Clear,210,2013-12-28 10:01:00
5:21 AM,32.9,28.2,83,30.34,10.0,SW,3.5,-,N/A,,Clear,220,2013-12-28 10:21:00
5:22 AM,32.9,28.4,84,30.34,10.0,SW,3.5,-,N/A,,Clear,220,2013-12-28 10:22:00
6:53 AM,33.8,28.4,81,30.35,10.0,SW,5.8,-,N/A,,Clear,220,2013-12-28 11:53:00
7:53 AM,32.0,28.4,87,30.35,10.0,SW,5.8,-,N/A,,Clear,220,2013-12-28 12:53:00
8:53 AM,39.2,32.0,75,30.35,10.0,SW,5.8,-,N/A,,Clear,220,2013-12-28 13:53:00
9:53 AM,44.6,32.0,61,30.36,10.0,WSW,6.9,-,N/A,,Clear,240,2013-12-28 14:53:00
10:45 AM,48.2,30.2,50,30.35,10.0,WSW,6.9,-,N/A,,Clear,240,2013-12-28 15:45:00
11:45 AM,50.0,28.4,43,30.30,10.0,SW,6.9,-,N/A,,Clear,220,2013-12-28 16:45:00
12:47 PM,53.6,28.4,38,30.27,10.0,SW,10.4,16.1,N/A,,Clear,230,2013-12-28 17:47:00
1:45 PM,55.4,28.4,36,30.25,10.0,SW,10.4,-,N/A,,Clear,230,2013-12-28 18:45:00
2:55 PM,55.4,28.4,36,30.22,10.0,SW,10.4,-,N/A,,Clear,220,2013-12-28 19:55:00
3:45 PM,53.6,30.2,41,30.23,10.0,SW,8.1,-,N/A,,Scattered Clouds,220,2013-12-28 20:45:00
4:45 PM,50.0,30.2,47,30.25,10.0,SW,5.8,-,N/A,,Partly Cloudy,220,2013-12-28 21:45:00
5:50 PM,46.4,30.2,53,30.24,10.0,South,4.6,-,N/A,,Clear,190,2013-12-28 22:50:00
9:43 PM,45.1,34.7,67,30.20,10.0,SSW,4.6,-,N/A,,Clear,200,2013-12-29 02:43:00
10:03 PM,44.6,34.3,67,30.20,10.0,SSW,3.5,-,N/A,,Clear,210,2013-12-29 03:03:00
10:23 PM,45.1,34.2,65,30.20,10.0,Calm,Calm,-,N/A,,Clear,0,2013-12-29 03:23:00
10:43 PM,44.6,33.8,66,30.19,10.0,SSW,3.5,-,N/A,,Clear,200,2013-12-29 03:43:00
11:03 PM,43.9,33.8,68,30.19,10.0,South,4.6,-,N/A,,Clear,190,2013-12-29 04:03:00
11:23 PM,46.2,33.1,60,30.18,10.0,South,3.5,-,N/A,,Clear,190,2013-12-29 04:23:00
11:43 PM,45.5,32.9,61,30.18,10.0,South,4.6,-,N/A,,Clear,190,2013-12-29 04:43:00